Weather in Safonovka

Russia / Belgorod Oblast     51°05′39″N   36°23′49″E
temp.,
°C
wind,
m/s
gust,
m/s
humid.,
%
clouds,
%
prec.,
mm/h
press.,
hPa
HPBL,
m
7 march, sun
sun700:00−6wnw478993 0.0 1022413
03:00−7w489486 0.0 1022343
06:00−7wsw5109499 0.0 1020301
09:00−5wsw7147577 0.0 1018716
12:00−2sw101565100 0.0 10151027
15:000wsw111862100 0.0 10101373
18:00−2wsw10188989 0.1 10081186
21:00−1wsw10178994 0.2 10071089
8 march, mon
mon800:00−1w81492100 0.4 1007863
03:00−1wsw71295100 0.7 1006792
06:00−2wsw71296100 0.4 1006715
09:00−2w71294100 1.0 1006843
12:00−1wnw7107998 0.3 10071335
15:00−1wnw797699 0.4 10081238
18:00−3wnw4882100 0.1 1008597
21:00−4wnw41087100 0.2 1011490
9 march, tue
tue900:00−6wnw499477 0.0 1012342
03:00−8nw478969 0.0 1013279
06:00−9nw479381 0.0 1014301
09:00−9wnw469189 0.1 1016300
12:00−7nw468399 0.1 1017697
15:00−6nw577999 0.1 1018912
18:00−8nw5782100 0.1 1019770
21:00−9nnw3689100 0.1 1022322
10 march, wed
wed1000:00−11nw23939 0.0 1023115
03:00−12nw239216 0.0 1024116
06:00−12nnw23940 0.0 102597
09:00−11n23867 0.0 1026226
12:00−8nne227239 0.0 1026482
15:00−7nne116551 0.0 1026656
18:00−8ne2276100 0.0 1026240
21:00−9ene228299 0.0 102750
11 march, thu
thu1100:00−9ese228288 0.0 102794
03:00−10ese238481 0.0 102872
06:00−10se348338 0.0 102893
09:00−8sse467420 0.0 1029316
12:00−4s45600 0.0 1029723
15:00−2s465112 0.0 10271194
18:00−4s35590 0.0 1026141
21:00−5s510600 0.0 1026246